Wind_Speed
1 3 4 1 3 4 2 2 4 1 5 4 18 4 5 5 2 3 21 28 27 24 22 21 19 19 19 19 17 18 18 19 19 18 17 15 14 14 14 12 12 11 10 11 10 9 10 11 11
3 4 0 1 5 4 1 4 2 3 10 19 12 9 7 3 5 18 35 26 26 24 24 22 20 20 20 19 16 16 16 17 17 16 15 15 14 14 13 12 12 12 11 11 11 10 10 11 12
2 4 4 4 2 3 2 2 5 4 14 1 5 10 4 3 14 35 24 30 26 25 25 23 21 20 20 18 16 16 17 17 15 15 14 14 13 13 13 12 12 11 11 11 11 11 11 11 13
2 3 3 5 4 3 2 5 6 2 6 4 12 6 7 4 27 21 28 30 25 25 25 23 21 20 19 18 17 16 16 15 14 14 13 13 12 11 11 11 10 11 11 10 10 10 11 11 11
3 3 4 3 3 2 3 3 3 3 0 7 4 6 13 13 16 23 29 27 25 25 24 23 21 19 19 18 17 16 15 14 13 12 12 12 11 10 10 9 8 9 10 10 10 11 11 12 12
4 2 4 2 3 1 2 4 1 6 9 11 13 8 4 12 22 22 26 26 23 23 23 22 20 19 19 18 16 15 14 13 12 11 11 10 10 10 7 7 7 7 8 9 9 10 11 12 12
4 3 3 2 3 4 2 5 2 10 9 5 15 4 10 23 22 19 24 24 22 20 21 22 21 19 19 18 16 14 13 11 11 10 10 9 8 8 6 6 6 6 6 8 9 11 11 11 12
7 4 1 4 1 4 3 3 7 9 3 16 11 7 9 30 24 22 25 22 19 19 19 21 22 21 21 19 16 14 11 9 9 9 8 6 6 6 5 5 5 6 8 8 8 10 13 14 12
10 4 4 5 6 4 5 4 6 4 13 7 7 16 32 32 28 27 29 24 20 20 19 20 22 20 20 17 14 12 9 8 6 6 6 5 3 4 4 4 4 4 7 9 10 10 11 14 14
4 5 9 8 6 4 11 4 9 6 11 5 15 24 38 32 29 29 28 23 20 20 20 19 19 19 18 17 13 10 8 7 5 5 4 4 3 3 5 5 6 8 9 10 12 12 12 13 13
3 5 7 8 9 12 9 9 6 17 2 16 29 34 37 34 31 28 25 18 14 17 18 18 17 17 16 13 11 10 8 8 7 6 5 6 6 7 8 8 9 10 11 10 12 17 17 15 14
4 3 10 11 13 9 6 15 7 8 10 26 29 34 40 36 34 31 27 23 20 18 15 16 16 16 15 14 8 8 10 8 7 4 5 8 7 9 10 9 10 12 12 13 10 12 14 18 18
3 5 0 12 18 13 9 2 5 6 19 28 30 37 39 37 33 31 25 23 21 17 17 16 18 16 18 15 10 10 9 6 7 8 7 7 10 11 11 11 14 16 16 14 13 13 14 16 16
13 10 11 16 14 15 8 3 3 12 23 31 36 34 36 35 34 33 32 29 25 19 20 17 18 17 18 15 13 10 10 9 8 10 10 11 12 12 14 12 14 17 16 13 10 12 15 17 17
12 5 7 3 9 4 9 5 4 12 27 31 31 34 34 33 32 34 32 32 27 15 20 21 19 19 17 15 14 13 11 10 9 7 7 10 13 15 16 18 18 16 17 15 12 15 16 18 18
6 5 2 6 9 9 3 7 4 14 23 26 29 32 34 30 32 30 32 31 30 26 17 19 23 22 18 16 15 14 15 13 12 11 12 10 13 14 13 16 21 22 20 17 14 15 17 18 19
6 3 5 1 13 3 5 6 8 19 15 21 27 31 31 32 31 30 33 32 29 26 25 13 23 24 20 15 15 15 16 19 17 15 14 13 9 8 14 19 22 19 19 15 13 12 15 19 20
4 6 7 2 9 7 9 13 4 22 13 19 27 26 27 29 35 34 32 32 29 25 20 20 22 24 22 18 15 15 14 17 22 21 16 14 10 10 14 16 15 9 12 9 11 13 14 17 20
3 3 5 11 8 10 15 15 9 18 13 15 23 25 26 31 29 31 27 28 31 27 21 20 24 26 26 22 21 16 15 12 13 12 9 8 7 7 10 13 9 6 4 7 11 13 14 14 17
4 4 9 11 2 3 8 10 2 12 12 12 22 29 25 23 27 28 27 26 32 29 20 21 21 27 27 23 16 16 13 12 13 11 11 7 6 7 9 11 5 5 6 11 12 11 12 15 14
3 4 5 8 6 1 5 6 3 3 8 15 21 25 28 23 23 28 31 28 35 35 25 19 24 23 24 21 16 15 12 10 8 5 6 6 5 5 7 6 3 7 9 10 9 10 11 15 15
6 5 9 11 4 1 6 4 4 4 8 7 21 28 27 23 27 30 36 32 35 32 25 18 22 20 21 22 16 14 11 10 7 4 5 4 4 4 4 4 6 10 11 9 7 7 11 12 16
11 4 10 7 3 5 3 1 5 6 8 12 15 31 31 20 24 30 37 35 33 30 27 18 18 18 19 22 16 12 11 10 8 7 6 5 4 3 4 7 7 7 7 7 8 9 11 11 15
6 3 5 4 4 2 5 2 5 6 6 8 15 27 33 22 19 28 29 30 31 32 29 20 18 16 19 22 18 12 9 9 9 8 6 4 2 2 6 6 7 8 8 8 9 10 12 12 13
4 5 3 3 3 6 1 2 8 4 8 9 20 29 34 25 15 23 28 29 29 27 30 26 20 16 18 19 15 13 8 9 9 7 4 2 3 4 5 8 10 12 11 9 8 10 13 14 15
7 9 6 6 5 5 3 5 5 3 15 20 24 39 40 36 30 16 27 28 26 25 28 28 22 17 18 17 14 15 12 12 10 6 3 1 3 4 7 10 12 12 12 9 9 12 15 14 12
3 3 5 7 3 3 3 6 9 6 3 11 10 23 35 45 43 31 28 26 26 26 29 28 21 19 18 17 16 16 16 13 10 7 6 5 6 7 8 8 11 12 11 8 9 13 16 15 14
5 5 3 3 4 3 4 4 6 2 5 7 8 21 28 26 24 19 24 28 29 28 27 24 19 19 18 18 18 18 14 12 8 11 6 4 4 5 9 8 7 9 11 8 9 13 16 16 16
2 1 4 5 5 6 3 6 8 6 7 9 9 23 27 30 28 26 28 29 32 30 28 22 20 21 22 21 19 17 15 10 13 9 6 1 3 7 9 9 7 9 9 9 10 14 15 16 18
2 6 7 5 5 2 4 6 3 8 7 12 20 30 26 20 22 20 22 29 32 33 30 25 23 25 24 22 20 18 14 16 13 10 6 2 4 9 9 9 8 9 11 11 10 12 17 18 21
Wind_Direction
40 66 50 162 72 75 123 317 309 341 116 295 156 196 148 55 150 200 146 158 163 159 159 157 154 147 144 138 136 132 128 130 132 131 130 129 132 138 139 134 136 136 139 140 135 133 130 136 133
300 22 287 208 81 75 282 293 305 345 119 110 103 88 47 83 103 141 149 158 162 160 161 157 155 152 147 139 137 134 136 136 139 138 136 137 132 137 141 135 138 144 140 141 143 143 137 135 137
13 7 6 71 52 110 98 299 314 76 140 60 109 75 60 79 135 142 153 157 160 162 162 160 156 151 147 142 140 135 138 137 139 139 136 136 135 137 139 146 145 143 140 139 140 146 147 146 138
338 13 55 64 24 359 13 313 256 255 76 88 105 70 61 134 135 150 150 158 160 160 161 163 158 153 152 151 147 139 139 141 144 142 147 144 143 141 147 146 146 149 147 148 149 153 156 158 152
21 355 52 22 313 297 291 26 16 146 100 97 54 94 106 142 144 149 154 159 162 160 164 165 163 160 159 157 154 149 144 142 143 146 148 148 152 147 145 152 155 155 159 154 157 161 162 163 160
41 351 53 305 269 225 243 116 143 124 92 104 99 98 85 172 152 149 158 161 167 164 167 168 168 167 166 163 159 158 157 153 152 150 151 155 153 153 165 156 161 170 173 169 167 167 172 173 175
145 82 204 210 277 298 165 148 144 128 121 104 132 80 135 156 154 148 161 164 171 172 172 172 175 174 172 170 169 165 160 160 159 161 161 160 164 169 171 171 181 191 192 192 190 179 176 180 188
135 104 143 231 208 275 225 113 119 123 87 147 131 147 167 161 159 152 160 165 172 178 181 179 178 180 179 178 175 170 168 167 168 168 165 166 179 184 187 195 212 213 216 207 205 199 192 190 192
159 88 221 253 158 223 181 160 132 140 144 152 185 157 161 165 162 157 162 168 173 178 183 184 184 182 185 183 181 183 179 179 186 181 183 191 202 219 227 231 257 280 239 232 223 220 211 207 207
150 147 215 213 163 183 178 123 150 158 163 160 101 139 161 169 169 167 170 175 181 182 181 188 189 188 189 191 192 186 189 198 217 220 227 211 223 242 253 267 275 275 281 254 235 232 230 224 221
237 225 189 192 176 176 146 150 143 120 28 165 146 156 169 175 178 180 179 182 175 178 185 189 190 191 192 190 190 188 190 203 219 228 231 229 235 246 265 283 292 288 279 275 254 240 241 239 239
308 272 159 149 163 157 157 143 146 207 184 168 168 170 173 182 185 189 187 186 177 180 187 189 190 192 188 175 182 197 190 201 210 212 233 237 259 271 278 295 296 283 267 256 258 253 253 251 248
139 357 127 145 149 151 143 177 131 159 165 157 168 172 179 185 193 198 197 193 188 181 179 180 182 180 180 185 180 178 190 229 258 254 262 273 271 275 282 297 301 287 276 261 248 261 257 252 256
307 311 128 144 157 145 141 164 192 193 166 164 167 171 184 191 196 200 202 201 196 188 184 188 190 186 187 196 198 200 218 237 267 252 258 275 287 287 281 301 304 303 293 269 277 276 266 256 253
304 97 76 195 163 106 114 336 223 172 176 168 177 181 183 195 201 206 208 205 190 214 210 203 204 202 202 205 209 214 229 243 258 265 276 279 281 294 285 280 285 293 306 300 279 274 271 265 260
358 82 171 196 178 170 134 257 256 161 169 172 185 191 194 198 209 215 212 215 206 195 219 235 216 213 212 214 219 229 235 241 255 258 276 289 306 291 299 302 296 291 288 290 286 277 278 274 269
3 348 2 130 212 103 193 246 224 187 187 183 193 196 199 209 217 218 221 220 215 211 224 239 218 219 219 219 227 234 244 249 255 262 274 284 307 324 317 318 307 285 280 285 301 290 289 286 283
323 332 328 177 218 213 202 266 212 196 208 198 204 209 210 216 221 224 225 226 215 218 224 242 215 216 218 219 225 244 246 249 249 260 268 286 292 311 321 320 324 300 267 272 302 306 300 298 300
261 265 298 292 193 170 203 242 221 194 212 209 213 224 227 228 229 223 226 224 215 217 232 230 216 211 212 216 224 241 245 236 232 238 258 294 282 313 331 341 350 15 342 356 323 315 310 314 311
263 328 301 275 196 155 161 240 193 190 223 206 213 225 223 219 218 216 217 213 208 216 227 225 222 215 216 222 242 247 243 230 240 249 251 284 286 322 332 336 347 33 1 336 319 315 305 328 327
284 223 274 253 333 22 111 327 168 230 221 215 230 227 226 216 209 207 210 215 204 212 225 235 228 224 228 226 237 244 248 250 283 243 251 255 259 314 332 331 316 326 323 316 321 319 320 318 326
275 181 245 268 70 356 76 269 247 189 214 217 218 228 225 228 219 217 210 209 210 218 222 227 232 243 227 220 226 237 255 262 245 234 207 238 259 300 310 2 332 327 327 322 329 336 337 322 329
243 192 251 245 64 83 301 109 267 129 217 223 221 223 218 229 219 217 212 213 217 218 219 220 226 231 219 214 229 230 251 250 231 226 240 260 266 281 339 342 328 327 332 336 336 335 343 340 343
271 253 40 33 109 52 233 155 278 198 203 200 223 223 224 220 213 216 217 214 218 216 216 218 215 215 212 217 222 219 243 240 222 233 236 272 354 18 6 10 356 351 346 347 356 360 3 360 355
132 69 332 355 12 232 93 274 243 211 206 196 199 213 215 217 221 208 208 209 215 215 217 218 214 204 201 205 211 219 237 212 213 225 238 264 331 351 37 29 20 7 359 360 6 5 360 359 1
195 160 161 211 207 257 31 232 253 153 223 219 213 212 207 215 217 226 207 210 218 214 212 215 211 204 204 206 209 218 227 206 201 211 235 293 58 80 39 27 19 16 22 25 24 12 4 2 353
241 168 187 105 20 70 248 297 306 102 346 238 189 193 209 215 226 227 204 206 216 217 209 205 204 202 200 201 212 211 207 194 197 199 165 107 92 61 29 11 11 15 15 26 23 7 7 9 5
160 168 73 359 131 216 282 258 232 275 221 240 168 196 209 213 218 225 213 204 216 218 209 203 203 203 200 201 201 198 196 196 183 151 148 118 79 30 6 2 356 5 14 17 356 359 6 10 8
38 341 30 122 129 163 213 258 218 182 203 194 193 205 203 195 197 189 220 215 218 214 205 202 205 201 198 194 192 196 196 179 164 159 165 148 359 347 342 343 339 347 352 356 340 345 351 355 359
191 225 161 139 220 171 163 268 42 173 168 201 177 196 178 168 190 206 222 223 216 208 201 207 199 197 197 191 191 195 192 173 175 183 188 234 318 327 322 328 321 329 334 338 334 336 340 345 348
Height
1494 1494 1494 1495 1503 1503 1513 1506 1494 1495 1497 1496 1497 1498 1501 1501 1505 1518 1509 1515 1520 1524 1527 1530 1533 1536 1537 1538 1540 1541 1542 1543 1544 1545 1545 1545 1546 1547 1548 1548 1548 1549 1550 1551 1552 1552 1552 1553 1554
1495 1494 1494 1493 1511 1521 1519 1501 1498 1495 1494 1498 1500 1498 1500 1506 1505 1507 1511 1517 1522 1525 1528 1531 1534 1537 1539 1540 1541 1542 1544 1545 1546 1546 1547 1548 1548 1549 1550 1550 1551 1551 1551 1552 1553 1554 1554 1555 1556
1495 1494 1495 1499 1512 1521 1517 1501 1496 1497 1495 1496 1500 1503 1505 1508 1507 1511 1515 1518 1523 1527 1530 1533 1536 1538 1539 1541 1543 1544 1545 1546 1547 1548 1549 1549 1550 1551 1552 1552 1553 1553 1553 1554 1555 1555 1556 1557 1558
1497 1497 1498 1511 1516 1508 1507 1501 1498 1498 1498 1499 1502 1505 1510 1510 1512 1515 1517 1521 1525 1528 1532 1535 1537 1539 1541 1543 1545 1545 1546 1548 1549 1550 1551 1551 1552 1553 1554 1554 1554 1554 1555 1556 1556 1557 1558 1559 1560
1498 1498 1510 1515 1515 1508 1503 1499 1498 1500 1500 1502 1503 1511 1514 1517 1517 1518 1520 1524 1527 1530 1534 1537 1539 1541 1543 1544 1546 1547 1548 1549 1550 1552 1553 1553 1554 1555 1556 1556 1556 1556 1556 1557 1557 1558 1559 1560 1561
1501 1502 1520 1524 1516 1508 1504 1502 1501 1501 1502 1503 1506 1510 1516 1518 1518 1521 1523 1527 1531 1532 1535 1538 1541 1543 1544 1545 1547 1548 1550 1551 1552 1553 1553 1554 1554 1555 1557 1557 1557 1557 1557 1558 1559 1559 1560 1561 1561
1501 1506 1514 1513 1514 1510 1502 1500 1501 1500 1503 1505 1506 1512 1519 1519 1522 1522 1525 1529 1532 1535 1537 1539 1542 1544 1546 1547 1548 1550 1551 1552 1553 1553 1554 1555 1556 1557 1557 1558 1558 1558 1558 1559 1559 1560 1560 1561 1561
1497 1501 1512 1510 1514 1509 1499 1498 1500 1501 1505 1505 1506 1512 1520 1519 1522 1525 1528 1531 1533 1535 1538 1539 1542 1544 1546 1548 1550 1550 1552 1553 1554 1555 1555 1556 1556 1557 1558 1558 1559 1559 1559 1559 1559 1560 1560 1561 1561
1499 1509 1519 1508 1508 1499 1498 1496 1501 1503 1505 1503 1505 1505 1512 1518 1522 1526 1529 1532 1534 1535 1538 1540 1542 1544 1547 1549 1551 1552 1553 1554 1555 1556 1556 1556 1557 1557 1558 1559 1559 1559 1560 1559 1559 1559 1560 1560 1560
1496 1508 1502 1490 1490 1495 1494 1497 1499 1501 1502 1505 1507 1508 1513 1518 1523 1525 1528 1531 1532 1534 1537 1540 1543 1545 1547 1550 1551 1553 1554 1554 1555 1556 1556 1557 1556 1557 1558 1558 1559 1559 1559 1559 1559 1559 1559 1559 1559
1493 1496 1487 1486 1490 1491 1492 1495 1497 1498 1504 1501 1504 1507 1514 1516 1522 1526 1528 1528 1529 1534 1537 1540 1543 1545 1547 1550 1552 1553 1554 1555 1555 1556 1556 1557 1557 1557 1557 1557 1557 1558 1558 1557 1557 1558 1558 1558 1558
1492 1482 1481 1486 1491 1494 1494 1494 1497 1496 1494 1497 1501 1504 1510 1516 1520 1523 1526 1528 1530 1532 1535 1539 1542 1544 1547 1550 1552 1553 1554 1554 1555 1556 1557 1558 1557 1557 1557 1557 1557 1556 1556 1555 1555 1555 1556 1556 1556
1489 1486 1486 1488 1494 1495 1497 1494 1496 1495 1496 1500 1503 1506 1510 1514 1519 1523 1525 1528 1531 1532 1535 1538 1541 1544 1547 1549 1551 1553 1554 1555 1556 1556 1557 1557 1557 1556 1556 1555 1555 1555 1553 1552 1552 1553 1552 1552 1553
1488 1487 1486 1494 1492 1495 1499 1498 1498 1497 1498 1501 1504 1506 1510 1514 1517 1522 1524 1527 1530 1534 1536 1539 1541 1544 1546 1548 1550 1552 1553 1554 1555 1555 1555 1556 1556 1555 1555 1554 1553 1552 1551 1549 1548 1549 1550 1549 1549
1487 1494 1494 1500 1494 1496 1497 1501 1498 1498 1500 1502 1506 1507 1510 1513 1516 1517 1520 1525 1530 1535 1539 1539 1540 1543 1546 1548 1549 1550 1552 1553 1554 1555 1555 1555 1555 1554 1553 1552 1551 1548 1548 1546 1545 1547 1546 1546 1546
1491 1492 1509 1496 1496 1496 1497 1508 1496 1498 1501 1503 1505 1507 1509 1512 1513 1516 1520 1522 1527 1531 1531 1537 1539 1541 1544 1546 1548 1549 1550 1552 1553 1553 1554 1554 1553 1552 1551 1549 1547 1547 1546 1544 1544 1544 1543 1542 1543
1503 1514 1506 1504 1497 1495 1500 1503 1493 1498 1500 1503 1504 1505 1506 1511 1514 1515 1517 1521 1525 1528 1530 1533 1536 1539 1542 1545 1547 1548 1549 1550 1550 1550 1551 1552 1552 1551 1550 1547 1544 1542 1542 1542 1541 1539 1540 1539 1539
1518 1516 1506 1507 1499 1498 1502 1497 1494 1496 1499 1501 1501 1503 1506 1507 1507 1513 1515 1519 1524 1527 1529 1531 1533 1536 1541 1544 1546 1547 1548 1547 1547 1549 1549 1550 1551 1550 1548 1545 1541 1538 1539 1537 1539 1538 1537 1536 1535
1505 1509 1512 1497 1489 1495 1499 1493 1491 1498 1499 1499 1500 1501 1504 1505 1508 1512 1515 1518 1522 1526 1529 1530 1532 1535 1539 1541 1543 1546 1546 1546 1546 1547 1548 1548 1548 1548 1546 1543 1541 1538 1537 1536 1536 1534 1532 1532 1530
1504 1510 1508 1491 1483 1484 1499 1495 1492 1495 1494 1498 1499 1499 1503 1505 1505 1509 1514 1516 1520 1524 1527 1529 1532 1534 1537 1539 1542 1544 1544 1546 1544 1544 1545 1546 1546 1545 1544 1542 1541 1539 1538 1535 1534 1533 1531 1528 1527
1505 1509 1506 1502 1486 1485 1492 1501 1497 1495 1498 1498 1498 1500 1501 1504 1504 1505 1511 1514 1518 1521 1525 1528 1532 1535 1536 1539 1541 1541 1544 1543 1543 1543 1543 1544 1544 1543 1543 1541 1540 1539 1537 1536 1533 1531 1529 1526 1524
1513 1493 1495 1493 1499 1518 1496 1526 1502 1498 1497 1497 1496 1495 1496 1496 1501 1503 1507 1512 1515 1519 1524 1526 1529 1532 1533 1536 1538 1540 1542 1542 1542 1543 1543 1543 1543 1543 1542 1541 1540 1538 1536 1534 1531 1529 1527 1523 1521
1499 1489 1492 1491 1501 1509 1506 1521 1503 1501 1501 1494 1494 1491 1493 1497 1500 1501 1504 1506 1512 1517 1521 1525 1528 1529 1531 1534 1537 1538 1539 1540 1539 1541 1542 1542 1542 1542 1541 1540 1539 1536 1534 1533 1531 1528 1524 1521 1519
1486 1489 1496 1502 1507 1535 1511 1517 1510 1501 1490 1489 1489 1489 1490 1496 1497 1500 1503 1507 1511 1515 1519 1522 1525 1527 1530 1534 1536 1538 1538 1539 1539 1540 1541 1541 1541 1541 1540 1538 1537 1535 1533 1530 1528 1525 1523 1520 1518
1487 1506 1534 1532 1532 1538 1515 1520 1497 1478 1476 1472 1476 1481 1488 1494 1494 1495 1498 1502 1505 1510 1515 1520 1523 1525 1529 1532 1534 1537 1538 1538 1539 1540 1541 1541 1540 1539 1538 1537 1535 1532 1529 1527 1526 1525 1522 1520 1517
1492 1501 1531 1543 1543 1531 1511 1515 1491 1471 1469 1465 1468 1472 1482 1489 1490 1493 1496 1500 1503 1506 1511 1517 1521 1523 1526 1529 1531 1534 1536 1537 1538 1539 1540 1539 1539 1539 1537 1536 1534 1532 1530 1528 1526 1524 1522 1518 1515
1487 1501 1489 1523 1527 1531 1520 1498 1477 1471 1471 1466 1469 1473 1475 1480 1484 1489 1493 1496 1501 1504 1508 1512 1516 1519 1522 1525 1529 1531 1533 1536 1536 1538 1540 1540 1539 1538 1537 1536 1533 1532 1529 1527 1525 1523 1520 1516 1513
1478 1478 1505 1515 1534 1535 1524 1509 1502 1476 1474 1469 1469 1468 1470 1477 1484 1492 1494 1492 1497 1501 1507 1511 1512 1514 1518 1522 1526 1530 1533 1535 1536 1538 1539 1539 1539 1538 1536 1535 1533 1531 1529 1526 1524 1522 1519 1515 1511
1482 1489 1495 1500 1512 1528 1535 1516 1473 1472 1474 1467 1463 1461 1464 1466 1474 1480 1487 1490 1494 1499 1505 1508 1510 1513 1516 1520 1524 1528 1531 1533 1536 1538 1539 1539 1539 1537 1536 1534 1532 1529 1527 1525 1522 1520 1517 1514 1510
1468 1476 1483 1507 1510 1515 1517 1505 1463 1465 1466 1467 1459 1457 1462 1472 1475 1477 1484 1488 1491 1497 1502 1504 1507 1509 1513 1516 1521 1526 1530 1532 1535 1537 1537 1538 1537 1536 1535 1533 1530 1527 1525 1523 1520 1518 1515 1512 1508